#timestamp,LO_Frequency,Hit,StdDev 
1634032815.5,286046990.5,N
1634032835.3,286046987.0,N
1634032855.1,286046987.3,Y
1634032875.9,286046992.1,P
1634032895.7,286046991.8,P
1634032915.5,286046992.0,P
1634032935.4,286046992.4,Y
1634032955.2,286046999.6,P
1634032975.0,286046998.7,N
1634032975.9,286046998.7,N
1634032995.8,286046997.6,N
1634033015.6,286046993.7,N
1634033035.4,286046995.9,N
1634033055.3,286046994.2,N
1634033075.1,286046992.9,N
1634033095.8,286046992.0,Y
1634033115.7,286046997.7,P
1634033135.5,286046995.6,P
1634033155.3,286046995.7,P
1634033175.2,286046995.4,Y
1634033195.0,286046996.5,P
1634033195.9,286046996.5,P
1634033215.7,286046999.6,P
1634033235.6,286046996.7,N
1634033255.4,286046997.6,N
1634033275.2,286046995.0,Y
1634033295.1,286046997.3,P
1634033296.0,286046997.3,P
1634033315.8,286046997.2,P
1634033335.6,286046996.1,Y
1634033355.5,286046996.5,P
1634033375.3,286046997.2,P
1634033395.1,286046996.7,P
1634033415.9,286046995.1,Y
1634033435.7,286046996.5,P
1634033455.5,286047000.8,P
1634033475.4,286046998.1,N
1634033495.2,286046998.3,N
1634033515.0,286046998.6,N
1634033516.0,286046998.6,N
1634033535.8,286046995.3,Y
1634033555.6,286047000.7,P
1634033575.5,286046998.7,N
1634033595.3,286046998.7,N
1634033615.1,286046997.7,N
1634033635.9,286046995.7,Y
1634033655.7,286046997.7,P
1634033675.5,286046997.9,P
1634033695.4,286046996.0,P
1634033715.2,286046994.0,Y
1634033735.0,286046995.6,P
1634033735.9,286046995.6,P
1634033755.8,286046994.9,P
1634033775.6,286046997.2,N
1634033795.4,286046999.6,N
1634033815.3,286046997.5,N
1634033835.1,286046994.9,Y
1634033836.0,286046994.9,P
1634033855.8,286046998.5,N
1634033875.7,286046998.4,N
1634033895.5,286046999.5,N
1634033915.3,286046997.8,N
1634033935.2,286046997.1,N
1634033955.9,286046994.9,Y
1634033975.7,286046997.4,P
1634033995.6,286046997.2,P
1634034015.4,286046999.4,P
1634034035.2,286046998.6,N
1634034055.1,286046998.1,N
1634034056.0,286046998.1,N
1634034075.8,286046996.6,Y
1634034095.6,286046999.3,P
1634034115.5,286046999.2,N
1634034135.3,286046996.7,P
1634034155.1,286046996.9,N
1634034175.9,286046996.2,Y
1634034195.7,286046997.5,P
1634034215.5,286046996.5,P
1634034235.4,286046997.5,P
1634034255.2,286046996.9,Y
1634034275.0,286047000.2,P
1634034275.9,286047000.2,N
1634034295.8,286047000.8,N
1634034315.6,286046997.1,N
1634034335.4,286046998.6,N
1634034355.3,286046998.8,N
1634034375.1,286046996.7,N
1634034395.8,286046997.3,N
1634034415.7,286046995.8,N
1634034435.5,286046995.4,N
1634034455.3,286046995.3,N
1634034475.2,286046995.7,N
1634034495.0,286046993.5,Y
1634034495.9,286046993.5,P
1634034515.7,286046999.1,N
1634034535.6,286046999.2,N
1634034555.4,286046997.4,N
1634034575.2,286046999.3,N
1634034595.1,286046999.3,N
1634034596.0,286046999.3,N
1634034615.8,286046999.3,N
1634034635.6,286046994.9,N
1634034655.5,286046995.5,N
1634034675.3,286046994.4,N
1634034695.1,286046992.6,Y
1634034715.9,286046995.2,P
1634034735.7,286046996.9,N
1634034755.5,286046997.5,N
1634034775.4,286046995.2,Y
1634034795.2,286046996.9,P
1634034815.1,286046995.2,P
1634034816.0,286046995.2,P
1634034835.8,286046993.6,Y
1634034855.6,286046997.1,P
1634034875.5,286046998.3,P
1634034895.3,286047001.1,N
1634034915.1,286046998.4,N
1634034935.9,286046996.5,N
1634034955.7,286046996.9,N
1634034975.5,286046996.2,N
1634034995.4,286046996.3,N
1634035015.2,286046995.8,N
1634035035.0,286046995.6,N
1634035035.9,286046995.6,N
1634035055.8,286046997.9,N
1634035075.6,286046993.4,Y
1634035095.4,286046996.8,P
1634035115.3,286046997.3,P
1634035135.1,286046995.1,P
1634035136.0,286046995.1,Y
1634035155.8,286046999.5,P
1634035175.7,286046998.9,N
1634035195.5,286046998.7,N
1634035215.3,286046999.6,N
1634035235.2,286046996.7,Y
1634035255.9,286046996.6,P
1634035275.7,286046997.7,N
1634035295.6,286046995.1,P
1634035315.4,286046995.1,Y
1634035335.2,286047000.3,P
1634035355.1,286046998.9,N
1634035356.0,286046998.9,N
1634035375.8,286046998.5,N
1634035395.6,286046998.5,N
1634035415.5,286046999.8,N
1634035435.3,286047001.1,N
1634035455.1,286047001.2,N
1634035475.9,286046998.8,N
1634035495.7,286046999.6,N
1634035515.5,286046997.7,N
1634035535.4,286046997.5,N
1634035555.2,286046995.7,Y
1634035575.0,286046998.7,P
1634035575.9,286046998.7,P
1634035595.8,286046997.2,P
1634035615.6,286046995.2,Y
1634035635.4,286046995.9,P
1634035655.3,286046993.3,P
1634035675.1,286046993.4,P
1634035695.9,286046992.3,Y
1634035715.7,286046995.5,P
1634035735.5,286046996.8,P
1634035755.3,286046999.3,N
1634035775.2,286047000.7,N
1634035795.0,286047000.9,N
1634035795.9,286047000.9,N
1634035815.7,286047000.0,N
1634035835.6,286047000.1,N
1634035855.4,286047000.0,N
1634035875.2,286047000.8,N
1634035895.1,286047000.9,N
1634035896.0,286047000.9,N
1634035915.8,286046996.9,N
1634035935.6,286046997.8,N
1634035955.5,286046997.7,N
1634035975.3,286046996.2,N
1634035995.1,286046993.3,Y
1634036015.9,286046995.8,P
1634036035.7,286046995.1,P
1634036055.5,286046997.7,N
1634036075.4,286046995.1,Y
1634036095.2,286047000.8,P
1634036115.0,286046998.1,N
1634036115.9,286046998.1,N
1634036165.8,286046998.8,E
1634036175.7,286046999.3,N
1634036195.6,286046998.1,P
1634036215.4,286046998.1,P
1634036235.2,286046996.5,Y
1634036255.1,286046998.5,P
1634036256.0,286046998.5,P
1634036275.8,286046999.8,P
1634036295.6,286046998.1,Y
1634036315.5,286047000.3,P
1634036335.3,286046998.3,N
1634036355.1,286047000.8,N
1634036375.9,286046998.6,N
1634036395.7,286046998.5,N
